Location: Bowden
(51.9167°N, 114.0333°W)
Time: 09:57:17
(UTC+00:00)

Envisat - Pass Details

Date: 10 December 2021
Orbit: 764 x 766 km, 98.2° (Epoch: 28 January)

Event Time Altitude Azimuth Distance (km) Brightness Sun altitude
Rises 01:26:23 0° 226° (SW) 3,226 7.3 -17.5°
Reaches altitude 10° 01:30:44 10° 262° (W) 2,308 6.8 -18.1°
Maximum altitude 01:32:04 11° 277° (W) 2,244 6.4 -18.3°
Drops below altitude 10° 01:33:24 10° 293° (WNW) 2,312 6.2 -18.5°
Sets 01:37:49 0° 329° (NNW) 3,247 6.5 -19.2°
